Location: Saint-Hippolyte
(43.6394°N, 4.7559°E)
Time: 15:16:52
(UTC+00:00)

Cosmos 2219 - Pass Details

Date: 24 October 2020
Orbit: 832 x 862 km, 71.1° (Epoch: 24 November)

Event Time Altitude Azimuth Distance (km) Brightness Sun altitude
Rises 19:12:20 0° 329° (NNW) 3,445 6.9 -27.6°
Reaches altitude 10° 19:14:53 10° 323° (NW) 2,506 6.2 -28.1°
Maximum altitude 19:20:19 44° 253° (WSW) 1,174 4.2 -29.1°
Enters shadow 19:23:26 24° 195° (SSW) 1,728 4.8 -29.6°
